Weather in Obsharovka

Russia / Samara Oblast     53°07′08″N   48°51′52″E
temp.,
°C
wind,
m/s
gust,
m/s
humid.,
%
clouds,
%
prec.,
mm/h
press.,
hPa
HPBL,
m
27 july, tue
tue2701:00+16wnw22585 0.0 102117
04:00+15wnw226250 0.0 102114
07:00+18wnw24606 0.0 1021148
10:00+24w45405 0.0 10191030
13:00+27wnw663085 0.0 10182297
16:00+25nw4735100 0.0 10171120
19:00+25nw47394 0.0 1016518
22:00+20nw33563 0.0 101641
28 july, wed
wed2801:00+19nw34610 0.0 101679
04:00+16nw22756 0.0 101623
07:00+19nnw356311 0.0 1017217
10:00+24n464062 0.0 10171220
13:00+28nnw463181 0.0 10152820
16:00+26nnw4533100 0.0 10151232
19:00+26n34340 0.0 1015905
22:00+18ese225034 0.0 101511
29 july, thu
thu2901:00+16se225544 0.0 101514
04:00+16ssw337098 0.0 101433
07:00+19s4756100 0.0 1014202
10:00+25ssw694069 0.0 1012766
13:00+25ssw4840100 0.0 1010575
16:00+24ssw61343100 0.1 1008730
19:00+27ssw274885 0.3 1005804
22:00+22sw497170 0.9 1006158
30 july, fri
fri3001:00+20wnw3581100 0.3 100672
04:00+18wnw379039 0.3 1007138
07:00+19wnw368292 0.0 1008260
10:00+25nw345113 0.0 10091144
13:00+30w453538 0.0 10082096
16:00+31w5531100 0.0 10082947
19:00+28wnw233967 0.0 100893
22:00+25ene22476 0.0 100934
31 july, sat
sat3101:00+22ese115697 0.0 100911
04:00+20sw1161100 0.0 100911
07:00+22sw117998 0.0 101065
10:00+28s345252 0.0 1009764
13:00+32ssw553910 0.0 10082220
16:00+32sw66379 0.0 10072152
19:00+30sw4645100 0.1 1007809
22:00+23n117063 0.5 100811